Wind_Speed
38 38 38 37 35 31 27 20 16 11 9 10 26 26 21 27 26 18 12 14 12 7 7 4 4 4 2 3 3 3 4 6 5 4 3 3 3 2 2 2 3 3 3 3 3 3 3 4 4
41 42 42 43 40 33 23 22 20 16 13 26 21 29 36 30 28 26 23 14 11 13 10 7 6 6 4 4 4 4 5 4 6 7 7 6 5 5 5 6 5 4 3 3 4 4 4 4 3
45 45 46 46 41 34 20 26 31 18 22 28 35 33 42 39 31 30 25 21 14 16 15 12 9 9 9 8 8 8 7 8 9 9 9 11 11 9 8 8 8 8 7 6 5 4 4 5 5
50 50 49 50 44 31 25 31 42 26 25 34 35 32 37 34 29 27 23 22 20 19 18 16 14 13 13 11 9 9 9 9 9 11 12 12 13 14 12 10 8 8 8 8 7 7 7 8 8
57 56 54 53 45 35 28 34 38 40 25 13 27 36 43 41 38 31 27 25 25 22 20 19 18 17 17 15 13 11 10 10 9 8 9 10 11 12 12 12 11 11 10 10 10 10 10 10 10
62 60 59 54 46 37 33 34 41 36 30 26 15 31 45 47 47 39 34 31 30 28 25 23 22 21 19 19 18 16 16 15 14 12 10 12 12 13 14 14 15 15 15 14 12 11 11 11 11
62 64 62 55 49 43 33 44 41 33 32 33 29 31 37 41 38 41 37 32 31 31 29 27 25 24 24 22 21 20 19 18 18 17 16 15 15 15 16 16 16 17 17 17 16 15 15 14 13
61 63 64 59 53 46 38 42 34 33 24 32 31 39 42 32 37 35 38 30 29 31 31 30 29 28 27 26 25 25 24 22 21 20 18 19 19 19 19 19 20 20 20 20 20 19 18 18 17
61 65 67 62 57 48 38 45 20 36 32 31 24 37 30 33 23 34 27 29 28 29 33 32 30 30 29 28 28 27 26 26 26 22 23 22 22 20 21 22 23 23 23 21 20 21 21 21 21
62 67 64 59 55 49 45 31 35 27 32 30 39 33 36 33 23 28 33 36 30 27 31 34 32 31 29 28 27 28 29 26 24 25 23 21 21 22 23 24 25 25 25 25 25 24 23 23 23
58 62 57 53 53 50 44 47 32 30 34 39 30 35 38 36 34 38 41 41 37 31 28 31 30 29 29 28 29 28 26 27 27 24 25 26 27 26 26 27 30 29 29 29 29 29 29 30 30
50 51 50 48 49 49 50 43 42 30 33 36 38 46 51 44 46 49 47 43 40 39 32 37 33 31 32 29 29 31 31 29 29 29 33 32 31 31 29 32 31 31 32 32 32 33 34 33 34
39 42 43 43 43 48 50 49 34 43 35 41 44 45 50 48 46 44 39 39 41 44 44 39 26 37 43 33 35 35 35 37 38 37 36 38 35 36 35 35 37 36 36 36 36 38 39 38 40
31 36 38 40 40 39 52 57 53 60 56 57 54 46 48 50 46 45 44 40 41 51 51 50 44 36 45 27 36 38 37 42 40 41 39 43 40 40 40 39 38 41 42 44 43 44 41 42 46
30 28 33 38 42 44 49 59 57 58 59 59 57 50 45 46 46 44 41 44 45 47 54 52 50 46 37 47 38 42 38 43 43 44 45 45 47 47 46 40 43 45 49 48 45 45 43 43 44
32 32 33 36 39 42 49 50 45 45 50 49 49 44 47 47 44 46 45 48 49 47 51 54 52 49 42 47 48 43 42 45 45 44 44 44 47 46 45 46 46 47 48 48 46 46 43 43 44
38 35 36 36 36 40 45 42 42 46 46 47 49 51 49 48 47 48 49 50 50 46 48 53 55 54 48 45 48 51 48 47 45 45 44 44 44 45 46 47 48 50 51 48 47 46 46 45 47
35 31 26 23 21 20 33 38 40 38 37 45 48 50 50 40 40 44 45 48 50 52 50 50 53 54 53 49 49 51 53 50 49 47 47 47 48 50 49 50 51 52 50 47 48 51 54 56 58
23 15 9 7 2 13 23 26 31 31 32 39 42 44 45 33 36 41 41 44 46 45 43 43 45 47 50 49 48 49 50 52 51 49 49 50 48 48 47 47 48 50 49 48 48 49 52 53 53
23 23 22 23 23 25 22 26 32 37 31 35 39 38 39 33 35 38 40 40 41 39 38 36 39 43 43 45 44 43 46 48 48 49 48 49 49 48 48 48 49 52 53 52 54 55 57 58 55
25 29 31 32 33 32 33 34 36 38 26 28 36 36 37 34 32 33 38 39 39 41 41 39 40 44 45 44 45 45 47 47 49 51 52 51 53 53 53 52 52 54 58 58 59 61 62 61 58
28 28 39 39 37 43 38 44 43 40 33 29 29 30 35 37 36 35 38 41 42 44 46 47 46 46 48 49 49 51 52 51 51 53 53 53 53 54 53 54 54 57 58 60 63 63 62 62 63
32 32 30 32 36 37 46 46 40 34 32 30 26 27 31 33 37 39 40 43 47 49 48 48 47 44 45 47 48 49 52 54 54 55 55 55 55 53 54 54 58 60 55 60 67 64 62 65 67
26 26 29 27 28 37 36 40 36 25 26 28 26 26 25 30 34 37 39 43 47 50 47 42 39 37 40 41 41 45 48 51 52 51 52 52 50 51 50 49 53 62 49 55 68 57 64 62 67
24 27 30 33 37 39 24 24 11 8 4 14 23 19 29 35 41 41 36 39 41 42 43 43 44 43 42 44 46 49 50 52 53 53 53 53 53 52 55 53 55 56 58 64 62 64 55 42 60
22 26 24 28 30 29 26 29 20 26 19 23 19 31 37 42 48 50 46 43 43 44 46 47 49 51 53 52 53 53 54 56 57 58 59 60 59 59 58 58 61 61 64 69 66 66 61 61 59
27 30 30 34 35 38 35 30 23 25 26 26 31 28 34 43 48 50 54 53 50 51 47 44 50 55 56 58 57 57 59 59 61 62 62 62 62 64 65 64 64 65 67 71 71 68 65 66 62
28 28 30 36 41 40 39 32 36 35 35 33 35 42 44 49 51 55 55 53 53 50 47 50 54 53 56 59 61 61 60 59 60 62 63 62 63 64 66 67 68 69 70 71 73 72 71 68 65
34 31 29 36 39 37 35 29 37 46 45 41 40 37 45 49 50 51 51 50 55 57 55 56 58 58 59 60 61 62 61 61 59 56 58 61 62 64 65 66 67 68 71 72 73 72 72 71 68
39 37 37 40 40 38 40 40 38 36 40 49 55 50 52 56 58 62 59 56 56 59 54 59 61 60 63 62 60 59 60 61 60 61 61 60 63 66 66 67 69 70 72 73 73 73 73 74 73
Wind_Direction
222 224 224 227 232 229 218 209 170 188 208 177 233 264 224 222 247 245 185 217 239 265 285 286 308 322 348 0 0 345 337 325 329 318 303 284 298 317 331 9 3 6 5 348 356 1 355 357 358
223 222 223 226 226 226 215 202 193 218 226 257 225 239 246 224 245 257 236 231 243 267 264 259 275 278 263 280 280 293 298 312 318 321 316 308 303 302 307 307 305 314 322 323 324 338 341 340 343
226 224 224 224 224 221 211 195 185 232 239 257 240 248 253 246 245 246 257 259 242 243 253 260 261 248 262 284 284 266 269 282 295 292 299 307 307 303 302 306 312 318 320 320 321 330 333 327 329
229 228 225 225 224 214 200 205 196 202 250 234 231 237 244 252 243 250 247 244 248 259 260 261 263 264 268 274 288 281 273 276 282 288 292 292 297 296 294 297 303 307 308 311 314 322 329 331 332
229 228 227 226 222 210 207 204 197 208 216 245 230 240 245 249 256 247 239 247 248 253 256 261 266 273 278 281 279 280 274 277 281 289 287 287 291 289 294 301 310 310 309 313 317 326 332 332 334
230 230 228 225 223 214 204 211 211 204 208 224 194 235 246 249 252 248 237 239 247 250 250 255 262 265 272 280 284 282 279 277 282 280 282 285 288 291 296 299 307 314 313 312 315 319 323 328 330
228 228 229 225 224 217 208 202 220 213 211 198 189 219 230 237 239 246 242 236 244 254 258 263 267 273 276 275 276 276 277 279 282 286 280 278 282 286 291 293 298 303 306 309 310 310 312 315 317
228 228 227 224 222 219 218 208 220 216 215 217 201 215 231 236 242 249 247 244 246 255 262 263 265 268 272 275 277 277 276 274 276 280 281 287 285 287 289 291 292 293 296 299 302 300 299 302 305
224 226 226 223 220 218 211 214 239 228 221 218 214 230 231 229 247 242 249 242 241 244 255 258 260 261 265 270 271 271 274 279 281 278 282 284 281 283 287 291 294 297 297 295 294 295 295 294 295
221 226 225 224 220 216 216 217 214 236 220 205 224 225 227 234 216 241 255 259 247 249 253 257 259 261 263 265 269 269 271 276 281 283 283 290 288 291 295 294 290 293 297 298 296 295 296 295 291
219 223 223 223 219 212 212 220 213 224 224 222 231 231 233 232 236 245 254 259 261 250 243 252 246 249 257 262 262 265 272 272 277 277 281 282 283 285 289 289 291 293 296 297 298 299 298 296 294
216 221 220 220 215 213 209 220 213 218 226 226 230 242 235 235 250 252 264 271 272 262 246 260 241 250 247 252 256 256 266 267 270 273 278 281 279 278 285 288 285 284 289 290 292 292 292 291 293
215 216 219 219 223 212 207 212 241 225 224 227 227 237 247 251 251 258 258 268 268 273 267 261 246 268 250 253 251 258 264 271 270 268 268 272 276 278 279 280 282 279 281 283 282 285 281 282 285
213 215 216 217 217 221 216 213 216 230 235 245 247 251 266 267 269 271 268 265 264 273 275 270 267 283 290 267 259 246 256 257 259 262 263 269 271 273 273 277 276 276 277 276 277 279 281 282 281
202 206 218 221 217 219 220 225 229 231 239 249 255 256 256 258 262 263 263 262 263 265 276 281 279 274 267 262 270 267 254 264 261 260 258 261 267 268 267 270 269 270 270 271 275 278 275 281 280
198 207 216 221 222 224 227 236 235 236 241 248 255 251 248 251 252 254 256 256 253 253 262 270 274 273 269 265 257 259 262 260 259 262 262 266 265 268 269 266 267 268 271 272 273 273 274 278 277
203 211 218 222 223 226 232 238 240 243 240 241 247 251 250 247 249 252 253 255 260 260 259 260 260 263 267 268 267 268 266 264 263 264 263 266 258 267 267 270 272 274 278 279 277 274 276 271 275
213 217 224 235 237 240 238 241 240 241 247 242 241 247 250 253 254 252 255 256 255 258 258 260 263 269 269 264 263 266 269 268 266 266 262 262 261 266 263 266 269 272 274 278 275 273 273 271 275
231 204 173 202 274 276 260 266 261 245 242 250 252 252 254 252 253 256 253 254 259 259 259 259 261 262 264 264 259 258 261 266 267 266 264 263 265 266 266 265 265 270 273 275 274 273 272 272 274
226 209 197 218 211 217 233 260 268 261 250 251 255 258 261 259 257 256 257 258 257 257 255 250 250 254 256 261 261 260 258 259 263 265 266 265 269 268 266 264 265 262 270 271 271 270 269 269 271
219 206 207 221 198 208 214 223 242 257 250 257 257 258 261 260 250 254 258 258 258 258 257 255 251 253 256 257 261 259 258 259 260 261 262 264 265 266 268 267 267 269 268 270 270 268 268 269 269
219 218 219 224 213 215 217 226 234 250 261 257 251 253 262 263 264 259 255 255 257 257 257 256 255 254 258 260 260 262 261 260 260 262 264 264 264 268 270 269 268 265 265 270 268 266 267 270 272
234 232 240 230 238 234 228 241 243 241 246 245 251 264 269 269 266 263 262 260 257 259 260 262 262 261 259 260 264 266 266 266 265 265 264 263 265 265 268 270 269 267 266 268 267 266 268 267 270
233 240 238 227 224 235 236 239 253 269 273 272 261 265 279 283 277 260 256 258 261 264 269 276 274 269 266 262 260 261 263 263 264 264 265 266 266 267 267 266 265 268 269 269 265 258 265 257 267
253 245 244 241 237 247 256 255 251 197 257 249 241 242 257 253 260 271 268 269 272 277 274 270 269 269 266 265 266 266 265 266 266 266 267 266 266 265 267 267 267 268 270 267 272 264 290 261 278
239 250 246 252 252 256 229 240 235 258 258 249 235 227 241 249 260 268 276 279 278 275 276 280 281 280 277 275 273 271 270 271 272 271 270 270 270 269 267 267 268 268 269 272 272 272 281 278 275
238 228 240 249 250 250 245 244 244 239 243 228 232 215 237 245 252 257 266 272 281 285 286 286 282 275 275 275 274 274 274 272 270 270 270 269 268 267 266 266 265 266 268 271 274 275 275 273 280
253 253 241 250 259 259 263 249 234 239 238 248 234 234 229 234 240 251 262 275 283 284 284 284 284 285 284 282 279 276 271 269 270 270 270 269 268 267 267 267 267 268 268 269 271 273 276 275 278
268 252 245 256 259 264 266 256 242 239 240 247 256 251 257 254 258 263 267 273 277 280 282 283 281 284 283 283 281 279 279 277 273 272 272 270 269 267 265 264 264 264 266 267 269 271 272 273 273
266 264 260 259 261 267 265 257 258 256 251 249 251 259 262 265 261 268 273 272 269 273 278 281 281 283 286 286 284 282 280 280 278 278 274 270 269 267 266 265 264 263 262 263 264 266 267 271 273
Height
5878 5880 5880 5883 5889 5892 5898 5905 5910 5910 5909 5909 5912 5909 5914 5912 5910 5917 5915 5917 5921 5923 5925 5926 5926 5927 5927 5928 5929 5929 5930 5930 5930 5930 5930 5929 5928 5927 5926 5925 5924 5924 5923 5922 5921 5919 5918 5917 5917
5872 5873 5874 5874 5880 5886 5897 5903 5907 5908 5907 5906 5910 5909 5907 5912 5909 5917 5919 5919 5919 5922 5924 5925 5925 5926 5926 5927 5928 5929 5929 5930 5930 5930 5930 5929 5928 5927 5926 5926 5925 5924 5923 5921 5920 5919 5918 5917 5916
5865 5866 5868 5868 5874 5882 5894 5896 5897 5900 5899 5903 5905 5906 5903 5904 5912 5919 5919 5917 5917 5919 5921 5923 5924 5924 5925 5925 5926 5926 5928 5928 5929 5929 5929 5929 5928 5927 5926 5926 5925 5924 5923 5922 5921 5919 5918 5917 5916
5858 5857 5861 5860 5868 5882 5888 5890 5889 5890 5892 5898 5900 5900 5896 5897 5908 5916 5916 5913 5915 5917 5919 5921 5921 5922 5923 5924 5924 5924 5925 5926 5926 5927 5927 5927 5926 5926 5926 5925 5924 5923 5922 5921 5920 5919 5918 5918 5917
5846 5849 5851 5855 5864 5875 5882 5883 5886 5885 5888 5889 5896 5890 5893 5895 5896 5906 5911 5908 5910 5913 5916 5918 5919 5920 5921 5921 5922 5922 5923 5923 5924 5924 5924 5924 5924 5924 5924 5923 5923 5922 5921 5920 5919 5919 5918 5918 5917
5834 5841 5843 5851 5862 5872 5875 5880 5874 5882 5882 5887 5886 5886 5887 5891 5891 5897 5905 5907 5908 5910 5913 5914 5915 5916 5917 5918 5919 5920 5920 5921 5920 5921 5922 5922 5921 5921 5921 5921 5921 5921 5920 5919 5918 5918 5917 5917 5916
5823 5827 5836 5846 5857 5864 5870 5867 5867 5874 5878 5871 5878 5877 5878 5882 5887 5889 5897 5904 5907 5906 5908 5910 5912 5913 5913 5914 5915 5916 5917 5917 5918 5918 5919 5919 5919 5919 5919 5918 5918 5918 5917 5917 5916 5916 5916 5915 5914
5815 5817 5825 5835 5847 5858 5864 5860 5865 5869 5869 5868 5871 5864 5868 5874 5881 5886 5888 5897 5901 5902 5903 5905 5907 5908 5909 5910 5911 5912 5913 5914 5915 5914 5914 5915 5916 5916 5916 5915 5915 5915 5914 5914 5913 5913 5912 5912 5912
5802 5803 5813 5826 5838 5852 5851 5850 5859 5863 5857 5871 5865 5859 5862 5868 5873 5879 5881 5889 5895 5898 5897 5900 5902 5903 5905 5906 5907 5908 5908 5909 5910 5910 5910 5910 5911 5912 5913 5912 5911 5911 5911 5911 5910 5909 5909 5908 5908
5788 5793 5807 5822 5832 5842 5838 5845 5847 5849 5852 5858 5854 5860 5858 5861 5866 5871 5875 5878 5889 5894 5893 5893 5896 5898 5899 5901 5902 5903 5903 5904 5905 5906 5907 5907 5907 5907 5908 5908 5908 5907 5907 5907 5907 5906 5906 5904 5904
5781 5785 5803 5813 5823 5833 5832 5833 5840 5841 5846 5853 5854 5854 5854 5858 5862 5862 5869 5871 5876 5885 5888 5885 5887 5888 5892 5895 5896 5898 5898 5899 5900 5901 5902 5902 5903 5903 5904 5903 5903 5903 5903 5904 5904 5903 5903 5901 5901
5773 5785 5795 5804 5811 5821 5827 5827 5830 5834 5841 5843 5850 5844 5846 5852 5853 5860 5865 5869 5866 5872 5883 5881 5878 5881 5883 5887 5890 5891 5893 5894 5895 5895 5895 5896 5898 5898 5899 5898 5898 5899 5898 5898 5898 5898 5898 5897 5895
5773 5781 5789 5796 5804 5813 5818 5817 5818 5827 5830 5831 5838 5840 5841 5848 5854 5858 5865 5863 5858 5857 5863 5872 5871 5873 5877 5882 5880 5884 5887 5889 5889 5890 5889 5890 5891 5892 5892 5893 5892 5893 5893 5893 5892 5891 5891 5891 5889
5773 5777 5783 5788 5796 5804 5809 5807 5811 5816 5822 5824 5832 5837 5838 5843 5847 5852 5853 5857 5853 5853 5855 5860 5865 5867 5870 5873 5875 5876 5880 5879 5880 5882 5884 5882 5883 5884 5885 5885 5885 5885 5886 5885 5885 5884 5884 5883 5883
5766 5771 5777 5782 5790 5794 5797 5799 5807 5813 5818 5820 5824 5830 5833 5836 5839 5842 5848 5847 5847 5846 5841 5844 5851 5860 5864 5865 5873 5869 5868 5872 5872 5874 5875 5875 5874 5874 5875 5875 5876 5878 5877 5877 5876 5876 5875 5874 5874
5760 5765 5771 5779 5784 5790 5789 5796 5806 5811 5811 5814 5816 5823 5825 5828 5831 5831 5835 5837 5839 5842 5842 5838 5839 5844 5851 5856 5858 5859 5859 5862 5864 5865 5865 5866 5865 5865 5865 5865 5866 5865 5866 5868 5869 5868 5868 5867 5866
5753 5759 5764 5771 5778 5781 5784 5793 5797 5798 5803 5807 5808 5810 5815 5819 5822 5823 5825 5827 5828 5834 5834 5832 5833 5836 5841 5842 5842 5843 5847 5851 5852 5854 5856 5857 5855 5855 5854 5855 5856 5856 5854 5853 5854 5854 5855 5854 5854
5751 5756 5762 5770 5776 5776 5779 5783 5787 5790 5793 5796 5800 5801 5805 5810 5812 5814 5816 5817 5821 5822 5826 5827 5827 5826 5829 5834 5835 5833 5833 5837 5840 5842 5843 5844 5846 5845 5845 5845 5845 5844 5844 5844 5844 5844 5842 5842 5842
5751 5754 5759 5765 5771 5774 5773 5774 5777 5782 5786 5786 5789 5792 5795 5803 5803 5804 5807 5806 5809 5814 5818 5819 5819 5817 5816 5818 5823 5825 5826 5825 5826 5828 5829 5829 5833 5834 5835 5836 5836 5834 5834 5835 5834 5833 5831 5829 5830
5747 5750 5753 5757 5764 5767 5767 5770 5772 5773 5778 5779 5781 5785 5786 5792 5793 5795 5796 5798 5801 5804 5806 5809 5809 5809 5810 5808 5812 5815 5816 5816 5815 5816 5818 5820 5820 5823 5823 5824 5825 5824 5823 5823 5822 5820 5818 5816 5819
5743 5747 5748 5749 5756 5758 5760 5761 5763 5764 5770 5774 5773 5775 5777 5780 5785 5787 5786 5788 5790 5791 5793 5798 5801 5799 5802 5803 5803 5804 5804 5805 5806 5807 5808 5808 5808 5810 5812 5813 5813 5813 5810 5810 5810 5807 5804 5805 5808
5735 5739 5741 5743 5749 5750 5753 5752 5756 5759 5764 5764 5766 5767 5768 5770 5773 5775 5776 5777 5779 5780 5780 5783 5788 5791 5790 5791 5793 5792 5793 5795 5796 5796 5797 5798 5799 5799 5802 5801 5801 5798 5798 5798 5793 5794 5793 5795 5797
5731 5734 5735 5739 5741 5744 5748 5745 5749 5753 5754 5756 5758 5760 5761 5762 5762 5764 5765 5765 5765 5768 5771 5772 5776 5780 5782 5782 5781 5781 5781 5781 5781 5782 5784 5785 5787 5789 5789 5789 5785 5785 5786 5782 5780 5779 5779 5777 5778
5724 5726 5729 5731 5731 5731 5736 5740 5744 5751 5752 5750 5752 5753 5754 5754 5753 5753 5754 5755 5756 5757 5761 5764 5765 5766 5767 5769 5770 5769 5769 5768 5768 5770 5770 5772 5775 5774 5776 5777 5775 5771 5773 5766 5765 5760 5759 5755 5760
5720 5721 5722 5724 5724 5725 5737 5735 5741 5742 5742 5742 5743 5745 5748 5747 5742 5744 5746 5747 5749 5749 5749 5750 5752 5753 5756 5756 5756 5756 5756 5756 5755 5756 5758 5760 5763 5765 5764 5764 5763 5762 5757 5752 5746 5749 5747 5734 5749
5715 5716 5716 5716 5720 5722 5726 5722 5729 5731 5737 5733 5737 5737 5738 5737 5735 5734 5735 5736 5738 5738 5738 5739 5739 5738 5738 5740 5740 5741 5741 5741 5741 5742 5743 5745 5748 5749 5750 5750 5747 5746 5741 5734 5739 5740 5743 5744 5740
5708 5706 5710 5708 5710 5710 5715 5721 5727 5725 5728 5726 5727 5729 5731 5731 5729 5728 5728 5728 5726 5726 5727 5728 5726 5724 5726 5726 5728 5728 5726 5726 5725 5725 5726 5728 5729 5729 5729 5731 5732 5731 5728 5721 5720 5723 5726 5729 5724
5700 5703 5702 5700 5699 5702 5705 5716 5716 5714 5718 5717 5713 5716 5718 5717 5716 5716 5715 5717 5718 5718 5718 5718 5715 5714 5712 5711 5708 5707 5709 5710 5708 5706 5707 5710 5710 5710 5710 5712 5712 5711 5711 5711 5709 5708 5706 5704 5705
5694 5695 5696 5694 5692 5695 5697 5703 5703 5705 5707 5709 5704 5710 5708 5706 5708 5709 5709 5709 5709 5709 5710 5710 5706 5702 5698 5696 5693 5691 5689 5689 5692 5693 5691 5690 5690 5689 5690 5691 5691 5692 5691 5691 5691 5691 5689 5687 5694
5686 5686 5686 5684 5686 5686 5687 5690 5694 5697 5697 5699 5702 5699 5702 5700 5698 5695 5697 5697 5698 5699 5703 5699 5691 5688 5684 5681 5679 5675 5672 5670 5670 5669 5670 5672 5672 5669 5670 5670 5671 5671 5672 5675 5676 5676 5673 5673 5677